Weather in Kacha

Russia / Republic of Crimea     44°46′22″N   33°32′37″E
temp.,
°C
wind,
m/s
gust,
m/s
humid.,
%
clouds,
%
prec.,
mm/h
press.,
hPa
HPBL,
m
4 march, thu
thu400:00+7n236296 0.0 1029483
03:00+6ese116564 0.0 1028244
06:00+5se21690 0.0 1027272
09:00+6s34670 0.0 1026414
12:00+7sw67630 0.0 1024909
15:00+7sw89680 0.0 1022789
18:00+7ssw810710 0.0 1020785
21:00+7ssw1011755 0.0 1020652
5 march, fri
fri500:00+7s10137920 0.0 1019649
03:00+7s10128013 0.0 1018594
06:00+7s10128025 0.0 1016525
09:00+8s10137821 0.0 1015565
12:00+9ssw1113750 0.0 1015602
15:00+9ssw1012800 0.0 1014499
18:00+9ssw911850 0.0 1014451
21:00+9s810895 0.0 1015390
6 march, sat
sat600:00+9s798934 0.0 1014331
03:00+9s798617 0.0 1014223
06:00+10wsw578360 0.0 1014161
09:00+7nnw898671 0.0 1016472
12:00+7nnw898598 0.1 1018620
15:00+6n9107399 0.1 1020876
18:00+6n91056100 0.0 10221302
21:00+4nne10115794 0.0 10261341
7 march, sun
sun700:00+3nne99490 0.0 10281289
03:00+2nne67500 0.0 10291033
06:00+2ne24440 0.0 1029815
09:00+2se224515 0.0 1030584
12:00+3w234393 0.0 1029966
15:00+4wnw554995 0.0 10271583
18:00+5w4546100 0.0 10251654
21:00+4wsw444786 0.0 10251329
8 march, mon
mon800:00+5sw56490 0.0 10241237
03:00+5sw66550 0.0 10221210
06:00+5sw665881 0.0 10201142
09:00+5ssw675987 0.0 10201240
12:00+5sw776095 0.0 10191294
15:00+5sw776197 0.0 10181243
18:00+6sw666096 0.0 10171217
21:00+6ssw566196 0.0 10171119